Home > Time Zones > World Clock > Weather > U.S.A. > Napa > Past weeks

Flag for U.S.A. Weather past 2 weeks in Napa, California, U.S.A.

Now
59 °F

Passing clouds.


Feels Like: 57 °F
Forecast: 59 / 76 °F
Wind: 10 mph from West

Location: Napa County Airport

Current Time: Jul 22, 2014 at 5:06:49 AM

Latest Report: Jul 22, 2014 at 3:54 AM


Visibility: 10 mi

Pressure: 30.00 "Hg

Humidity: 93%

Dew point: 57 °F

Location of NapaLocation

Historic Weather in Napa — Graph

°F

Napa temperature yesterday

Maximum temperature yesterday: 75 °F (at 2:54 PM)
Minimum temperature yesterday: 60 °F (at 5:54 AM)
Average temperature yesterday: 66 °F

Past Weeks' High & Low Weather Summary

 TemperatureHumidityPressure
High81 °F (Jul 15, 1:54 PM)100% (Jul 20, 3:54 AM)30.06 "Hg (Jul 20, 3:54 AM)
Low55 °F (Jul 7, 5:54 AM)45% (Jul 14, 1:54 PM)29.80 "Hg (Jul 7, 6:54 PM)
Average65 °F78%29.93 "Hg
* Reported Jul 7 3:54 AM — Jul 22 3:54 AM, Napa, Weather by CustomWeather, © 2014

Note: Actual official high and low records may vary slightly from our data, if they occured in-between our weather recording intervals... More about our weather records

Advertising

Napa weather history for previous 24 hours

 ConditionsComfort  
Time TempWeatherWind HumidityBarometerVisibility
3:54 AM
Jul 22
59 °FPassing clouds.10 mph93%30.00 "Hg10 mi
2:54 AM60 °FOvercast.10 mph93%30.01 "Hg10 mi
1:54 AM59 °FClear.7 mph93%30.01 "Hg10 mi
12:54 AM59 °FClear.6 mph93%30.00 "Hg10 mi
11:54 PM
Jul 21
60 °FClear.9 mph93%30.01 "Hg10 mi
10:54 PM61 °FClear.8 mph90%30.01 "Hg10 mi
9:54 PM62 °FClear.13 mph86%30.00 "Hg10 mi
8:54 PM64 °FSunny.14 mph81%29.99 "Hg10 mi
7:54 PM67 °FSunny.16 mph73%29.98 "Hg10 mi
6:54 PM71 °FSunny.18 mph66%29.98 "Hg10 mi
5:54 PM73 °FSunny.14 mph64%29.98 "Hg10 mi
4:54 PM74 °FSunny.18 mph62%29.98 "Hg10 mi
3:54 PM75 °FSunny.20 mph60%29.99 "Hg10 mi
2:54 PM75 °FSunny.18 mph60%30.00 "Hg10 mi
1:54 PM74 °FSunny.16 mph62%30.01 "Hg10 mi
12:54 PM72 °FOvercast.16 mph66%30.02 "Hg10 mi
11:54 AM70 °FOvercast.10 mph71%30.03 "Hg10 mi
10:54 AM68 °FOvercast.7 mph73%30.03 "Hg10 mi
9:54 AM66 °FOvercast.9 mph78%30.02 "Hg10 mi
8:54 AM66 °FPartly sunny.9 mph75%30.01 "Hg10 mi
7:54 AM64 °FSunny.8 mph81%29.99 "Hg10 mi
6:54 AM61 °FClear.6 mph93%29.97 "Hg10 mi
5:54 AM60 °FClear.8 mph93%29.96 "Hg10 mi
Weather by CustomWeather, © 2014

See weather overviewHow to use our weather pages